GW5591 Weather Reports


Display with metric or nautical units.
time (UTC)temp
F
wind
direction
speed
MPH
gust
MPH
rain 1hr
in
rain 24hr
in
rain mn
in
humidity
%
barometer
mb
20260505052748 57 280 0.0 0.0 0.00 0.00 0.00 64 1011.1
20260505052245 58 322 1.0 1.0 0.00 0.00 0.00 64 1010.7
20260505051742 57 224 2.0 2.0 0.00 0.00 0.00 64 1010.7
20260505051240 57 230 0.0 2.0 0.00 0.00 0.00 65 1010.7
20260505050738 57 147 1.0 1.0 0.00 0.00 0.00 66 1010.8
20260505050236 57 160 1.0 4.0 0.00 0.00 0.00 66 1011.1
20260505041706 56 119 0.0 1.0 0.00 0.00 0.00 70 1010.7
20260505041203 56 70 0.0 1.0 0.00 0.00 0.00 69 1010.6
20260505040700 56 70 0.0 1.0 0.00 0.00 0.00 69 1010.7
20260505040157 56 91 0.0 0.0 0.00 0.00 0.00 70 1010.5
20260505035654 57 95 0.0 0.0 0.00 0.00 0.00 68 1010.5
20260505035150 56 64 0.0 0.0 0.00 0.00 0.00 68 1010.6
20260505034647 57 72 0.0 0.0 0.00 0.00 0.00 69 1010.7
20260505034144 57 71 0.0 0.0 0.00 0.00 0.00 68 1010.8
20260505033640 57 262 1.0 2.0 0.00 0.00 0.00 68 1010.7
20260505033139 56 142 1.0 1.0 0.00 0.00 0.00 69 1010.6
20260505032637 56 329 0.0 0.0 0.00 0.00 0.00 69 1010.8
20260505032132 57 325 1.0 1.0 0.00 0.00 0.00 68 1010.8
20260505031630 57 3 0.0 2.0 0.00 0.00 0.00 69 1010.7
20260505031126 57 43 1.0 1.0 0.00 0.00 0.00 68 1010.9
20260505030623 57 59 0.0 1.0 0.00 0.00 0.00 68 1010.8
20260505030119 57 58 0.0 1.0 0.00 0.00 0.00 66 1010.9
20260505025615 57 11 0.0 1.0 0.00 0.00 0.00 66 1010.9
20260505025114 58 184 1.0 2.0 0.00 0.00 0.00 65 1011.1
20260505024611 58 355 0.0 1.0 0.00 0.00 0.00 64 1011.1
20260505024108 58 177 0.0 2.0 0.00 0.00 0.00 64 1010.9
20260505023605 58 341 0.0 1.0 0.00 0.00 0.00 65 1011.2
20260505023103 59 131 1.0 1.0 0.00 0.00 0.00 63 1010.8
20260505022600 59 134 0.0 1.0 0.00 0.00 0.00 63 1010.8
20260505022057 59 151 1.0 1.0 0.00 0.00 0.00 62 1010.8
20260505021553 59 338 2.0 2.0 0.00 0.00 0.00 62 1011.1
20260505021050 60 101 0.0 1.0 0.00 0.00 0.00 62 1010.8
20260505020550 60 1 0.0 2.0 0.00 0.00 0.00 60 1011.1
20260505020047 60 336 4.0 7.0 0.00 0.00 0.00 61 1011.2
20260505015544 60 116 0.0 1.0 0.00 0.00 0.00 61 1011.2
20260505015041 60 349 1.0 3.0 0.00 0.00 0.00 61 1011.2
20260505014538 60 62 0.0 1.0 0.00 0.00 0.00 61 1010.9
20260505014035 60 147 0.0 2.0 0.00 0.00 0.00 61 1010.7
20260505013532 60 218 0.0 1.0 0.00 0.00 0.00 62 1010.8
20260505013029 59 278 1.0 2.0 0.00 0.00 0.00 62 1011.2
20260505012527 60 159 1.0 1.0 0.00 0.00 0.00 61 1010.7
20260505012024 60 254 0.0 1.0 0.00 0.00 0.00 61 1010.9
20260505011519 60 163 0.0 3.0 0.00 0.00 0.00 60 1010.6
20260505011017 60 147 0.0 0.0 0.00 0.00 0.00 62 1010.6
20260505010512 60 149 1.0 2.0 0.00 0.00 0.00 61 1010.6
20260505010009 59 188 0.0 1.0 0.00 0.00 0.00 62 1010.6
20260505005506 60 162 0.0 1.0 0.00 0.00 0.00 61 1010.5
20260505005004 60 128 0.0 1.0 0.00 0.00 0.00 61 1010.3
20260505004500 60 148 0.0 1.0 0.00 0.00 0.00 60 1010.5
20260505003956 60 163 0.0 1.0 0.00 0.00 0.00 60 1010.4
20260505003454 61 258 1.0 2.0 0.00 0.00 0.00 58 1010.6
20260505002950 61 163 0.0 0.0 0.00 0.00 0.00 58 1010.6
20260505002446 61 270 1.0 2.0 0.00 0.00 0.00 59 1010.4
20260505001945 61 142 0.0 0.0 0.00 0.00 0.00 59 1010.5
20260505001442 61 281 1.0 3.0 0.00 0.00 0.00 59 1010.5
20260505000939 61 97 0.0 1.0 0.00 0.00 0.00 58 1010.5
20260505000437 62 124 0.0 2.0 0.00 0.00 0.00 57 1010.5
20260504235933 62 135 0.0 0.0 0.00 0.00 0.00 57 1010.4
20260504235431 62 252 1.0 1.0 0.00 0.00 0.00 56 1010.3
20260504234926 62 48 1.0 2.0 0.00 0.00 0.00 56 1010.3
20260504234424 63 197 1.0 3.0 0.00 0.00 0.00 55 1010.3
20260504233921 63 315 1.0 3.0 0.00 0.00 0.00 54 1010.2
20260504233417 63 193 1.0 2.0 0.00 0.00 0.00 54 1010.0
20260504232913 64 222 1.0 2.0 0.00 0.00 0.00 54 1010.2
20260504232410 64 252 1.0 2.0 0.00 0.00 0.00 53 1010.0
20260504231908 64 149 0.0 2.0 0.00 0.00 0.00 53 1010.2
20260504231404 64 87 0.0 2.0 0.00 0.00 0.00 53 1010.1
20260504230900 64 140 1.0 4.0 0.00 0.00 0.00 52 1010.2
20260504230358 64 151 0.0 2.0 0.00 0.00 0.00 53 1010.1
20260504225856 64 122 0.0 1.0 0.00 0.00 0.00 52 1010.4
20260504225352 64 300 1.0 3.0 0.00 0.00 0.00 53 1010.1
20260504224850 64 288 1.0 3.0 0.00 0.00 0.00 52 1010.4
20260504224346 64 175 2.0 3.0 0.00 0.00 0.00 51 1010.1
20260504223843 64 147 1.0 2.0 0.00 0.00 0.00 51 1010.3
20260504223339 65 222 1.0 3.0 0.00 0.00 0.00 51 1010.1
20260504222835 65 117 1.0 2.0 0.00 0.00 0.00 51 1010.1
20260504222332 65 148 0.0 6.0 0.00 0.00 0.00 50 1010.1
20260504221831 65 296 3.0 6.0 0.00 0.00 0.00 50 1010.0
20260504221327 66 29 2.0 3.0 0.00 0.00 0.00 48 1010.1
20260504220824 66 141 0.0 1.0 0.00 0.00 0.00 49 1010.1
20260504220321 66 126 1.0 3.0 0.00 0.00 0.00 48 1010.1
20260504215819 66 52 2.0 4.0 0.00 0.00 0.00 49 1010.1
20260504215315 66 241 2.0 7.0 0.00 0.00 0.00 48 1010.2
20260504214811 66 274 2.0 7.0 0.00 0.00 0.00 48 1010.2
20260504214308 67 155 0.0 3.0 0.00 0.00 0.00 47 1010.3
20260504213804 68 299 2.0 6.0 0.00 0.00 0.00 46 1010.1
20260504213300 67 178 2.0 2.0 0.00 0.00 0.00 47 1010.2
20260504212758 68 126 1.0 3.0 0.00 0.00 0.00 47 1010.1
20260504212254 68 134 1.0 3.0 0.00 0.00 0.00 46 1010.0
20260504211752 67 148 0.0 2.0 0.00 0.00 0.00 47 1009.9
20260504211247 66 168 1.0 4.0 0.00 0.00 0.00 47 1010.0
20260504210745 68 113 4.0 6.0 0.00 0.00 0.00 46 1010.2
20260504210242 68 163 1.0 2.0 0.00 0.00 0.00 45 1010.0
20260504205739 69 265 2.0 3.0 0.00 0.00 0.00 44 1010.0
20260504205237 68 180 0.0 2.0 0.00 0.00 0.00 46 1009.9
20260504204735 68 169 1.0 3.0 0.00 0.00 0.00 45 1010.0
20260504204233 68 282 3.0 3.0 0.00 0.00 0.00 46 1010.0
20260504203732 69 183 0.0 4.0 0.00 0.00 0.00 44 1009.9
20260504203229 70 167 2.0 7.0 0.00 0.00 0.00 42 1009.9
20260504202729 69 287 1.0 4.0 0.00 0.00 0.00 44 1010.2
20260504202226 70 348 4.0 7.0 0.00 0.00 0.00 42 1009.8
20260504201724 69 236 4.0 6.0 0.00 0.00 0.00 43 1010.0
20260504201221 68 132 2.0 2.0 0.00 0.00 0.00 46 1010.1
20260504200718 69 144 1.0 2.0 0.00 0.00 0.00 45 1010.0
20260504200214 70 278 1.0 4.0 0.00 0.00 0.00 43 1010.1
20260504195711 70 178 3.0 4.0 0.00 0.00 0.00 44 1010.3
20260504195207 69 141 1.0 3.0 0.00 0.00 0.00 46 1010.3
20260504194704 69 5 4.0 6.0 0.00 0.00 0.00 44 1010.3
20260504194200 69 159 2.0 4.0 0.00 0.00 0.00 47 1010.4
20260504193656 69 153 1.0 2.0 0.00 0.00 0.00 47 1010.2
20260504193154 68 130 2.0 8.0 0.00 0.00 0.00 49 1010.4
20260504192652 68 163 2.0 4.0 0.00 0.00 0.00 47 1010.5
20260504192150 68 138 3.0 6.0 0.00 0.00 0.00 46 1010.6
20260504191648 68 96 0.0 3.0 0.00 0.00 0.00 46 1010.5
20260504191144 69 287 2.0 4.0 0.00 0.00 0.00 47 1010.6
20260504190640 66 153 1.0 3.0 0.00 0.00 0.00 49 1010.4
20260504190137 64 73 4.0 4.0 0.00 0.00 0.00 51 1010.7
20260504185633 65 148 3.0 4.0 0.00 0.00 0.00 50 1010.6
20260504185130 66 113 2.0 3.0 0.00 0.00 0.00 48 1010.6
20260504184626 67 143 1.0 4.0 0.00 0.00 0.00 48 1010.7
20260504184121 68 280 1.0 4.0 0.00 0.00 0.00 47 1010.7
20260504183619 67 180 3.0 4.0 0.00 0.00 0.00 48 1010.9
20260504183116 67 85 1.0 6.0 0.00 0.00 0.00 47 1010.9
20260504182614 68 151 1.0 3.0 0.00 0.00 0.00 46 1010.7
20260504182111 68 122 4.0 4.0 0.00 0.00 0.00 45 1010.9
20260504181608 68 143 1.0 6.0 0.00 0.00 0.00 48 1011.1
20260504181105 68 217 3.0 3.0 0.00 0.00 0.00 45 1010.8
20260504180604 66 293 3.0 3.0 0.00 0.00 0.00 48 1011.2
20260504180103 64 135 2.0 4.0 0.00 0.00 0.00 49 1011.2
20260504175600 64 332 1.0 3.0 0.00 0.00 0.00 52 1011.5
20260504175056 65 139 0.0 7.0 0.00 0.00 0.00 49 1011.4
20260504174555 66 126 1.0 4.0 0.00 0.00 0.00 48 1011.3
20260504174051 67 280 2.0 7.0 0.00 0.00 0.00 46 1011.6
20260504173548 67 198 2.0 4.0 0.00 0.00 0.00 46 1011.3
20260504173045 67 354 2.0 4.0 0.00 0.00 0.00 46 1011.4
20260504172541 67 287 3.0 7.0 0.00 0.00 0.00 44 1011.4
20260504172038 66 168 2.0 4.0 0.00 0.00 0.00 46 1011.4
20260504171535 66 115 2.0 4.0 0.00 0.00 0.00 45 1011.6
20260504171032 65 123 1.0 3.0 0.00 0.00 0.00 48 1011.5
20260504170528 65 151 0.0 3.0 0.00 0.00 0.00 45 1011.7
20260504150912 63 179 2.0 3.0 0.00 0.00 0.00 43 1012.8
20260504150409 62 162 1.0 3.0 0.00 0.00 0.00 43 1012.9
20260504140835 59 79 0.0 0.0 0.00 0.00 0.00 46 1012.7
20260504140330 58 128 1.0 2.0 0.00 0.00 0.00 46 1012.9
20260504130800 54 296 0.0 2.0 0.00 0.00 0.00 52 1013.4
20260504130256 53 141 1.0 2.0 0.00 0.00 0.00 52 1013.1
20260504120219 49 136 0.0 1.0 0.00 0.00 0.00 60 1013.6
20260504110647 47 128 0.0 0.0 0.00 0.00 0.00 65 1013.3
20260504110143 46 46 1.0 1.0 0.00 0.00 0.00 67 1013.5
20260504100609 46 143 0.0 0.0 0.00 0.00 0.00 62 1013.5
20260504100107 46 140 0.0 1.0 0.00 0.00 0.00 63 1013.3
20260504082003 46 214 1.0 1.0 0.00 0.00 0.00 54 1014.2
20260504081500 47 134 0.0 0.0 0.00 0.00 0.00 52 1014.4
20260504080955 47 133 0.0 0.0 0.00 0.00 0.00 51 1014.1
20260504080452 47 134 0.0 0.0 0.00 0.00 0.00 51 1014.2